Home   Weather   Grenchen   Past weeks

Flag for Switzerland Past Weather in Grenchen, Solothurn, Switzerland — Yesterday and Last 2 Weeks

Now
39 °F

Chilly.


Feels Like: 39 °F
Forecast: 34 / 58 °F
Wind: 2 mph from East

Location: Grenchen

Current Time: Feb 26, 2017 at 8:26:45 pm

Latest Report: Feb 26, 2017 at 7:00 pm


Visibility: N/A

Pressure: 30.08 "Hg

Humidity: 76%

Dew Point: 32 °F

Location of GrenchenLocation

Past Weather in Grenchen — Graph

°F

Grenchen Temperature Yesterday

Maximum temperature yesterday: 48 °F (at 5:00 pm)
Minimum temperature yesterday: 28 °F (at 5:00 am)
Average temperature yesterday: 36 °F

High & Low Weather Summary for the Past Weeks

 TemperatureHumidityPressure
High66 °F (Feb 23, 3:00 pm)100% (Feb 16, 12:00 am)30.70 "Hg (Feb 16, 12:00 am)
Low25 °F (Feb 15, 4:00 am)24% (Feb 23, 3:00 pm)29.66 "Hg (Feb 23, 5:00 pm)
Average40 °F81%30.27 "Hg
* Reported Feb 11 7:00 pm — Feb 26 7:00 pm, Grenchen, Weather by CustomWeather, © 2017

Note: Actual official high and low records may vary slightly from our data, if they occured in-between our weather recording intervals... More about our weather records

Advertising

Grenchen Weather History for the Previous 24 Hours

Scroll right to see more
 ConditionsComfort  
Time TempWeatherWind HumidityBarometerVisibility
7:00 pm
Sun, Feb 26
39 °FChilly.2 mph76%30.08 "HgN/A
6:00 pm47 °FCool.2 mph63%30.04 "HgN/A
5:00 pm52 °FCool.2 mph46%30.02 "HgN/A
4:00 pm53 °FCool.5 mph44%30.03 "HgN/A
3:00 pm51 °FCool.5 mph49%30.05 "HgN/A
2:00 pm50 °FCool.6 mph51%30.07 "HgN/A
1:00 pm47 °FCool.5 mph55%30.11 "HgN/A
12:00 pm44 °FQuite cool.3 mph64%30.16 "HgN/A
11:00 am42 °FQuite cool.3 mph69%30.18 "HgN/A
10:00 am38 °FChilly.1 mph79%30.19 "HgN/A
9:00 am35 °FChilly.1 mph84%30.20 "HgN/A
8:00 am29 °FChilly.1 mph95%30.21 "HgN/A
7:00 am28 °FChilly.2 mph94%30.20 "HgN/A
6:00 am28 °FChilly.2 mph93%30.20 "HgN/A
5:00 am31 °FChilly.2 mph89%30.20 "HgN/A
4:00 am31 °FChilly.3 mph88%30.20 "HgN/A
3:00 am28 °FChilly.2 mph92%30.21 "HgN/A
2:00 am31 °FChilly.1 mph89%30.21 "HgN/A
1:00 am31 °FChilly.1 mph90%30.21 "HgN/A
12:00 am30 °FChilly.No wind88%30.22 "HgN/A
11:00 pm
Sat, Feb 25
31 °FChilly.1 mph84%30.21 "HgN/A
10:00 pm30 °FChilly.3 mph85%30.22 "HgN/A
9:00 pm33 °FChilly.1 mph83%30.20 "HgN/A
8:00 pm35 °FChilly.1 mph73%30.20 "HgN/A
Weather by CustomWeather, © 2017

See weather overviewHow to use our weather pages